Theta_e
339 336 335 335 337 333 323 320 306 312 308 303 303 305 303 308 309 309 310 312 309 315 315 316 318 318 316 315 316 318 318 315 316 309 311 327 338 340 341 341 342 345 345 345 348 350 350 350 350 351 350 350 349 349 348 347 346 345 344 343 342 343 345 345 345 345 346 345 345 347 346 346 346 346 345 345 345 345 344 344 343 342 340 339 338 338 336 336 336 336 334 333 333 338 339 337 336
336 335 334 335 332 326 317 317 309 306 306 302 303 305 306 308 308 310 310 311 311 314 318 318 319 321 319 319 319 319 318 320 322 326 332 335 340 339 342 342 343 343 344 346 348 348 347 349 350 350 350 350 350 349 349 347 347 346 344 343 343 342 342 341 341 341 341 341 343 346 346 344 345 345 345 345 346 345 344 343 342 341 341 339 339 337 336 334 333 334 333 334 333 334 338 336 335
333 334 332 331 328 323 320 317 304 303 301 298 302 305 308 308 309 311 312 312 313 318 319 318 320 319 318 318 316 316 313 324 326 327 331 337 333 336 341 343 343 344 344 346 347 346 345 347 349 350 350 350 350 349 349 348 347 346 344 343 343 342 342 341 340 339 339 339 339 340 346 344 344 344 344 345 344 344 343 342 341 340 339 338 338 337 336 334 333 331 331 332 333 332 332 332 332
334 335 332 328 320 322 314 312 307 304 300 301 301 306 308 308 310 312 314 314 313 316 317 316 316 320 318 315 317 319 319 322 328 330 328 333 337 340 340 342 345 344 346 346 347 347 347 347 347 349 350 349 350 349 349 348 347 346 345 343 342 341 340 338 338 338 337 337 338 336 336 341 345 344 344 345 344 344 343 341 339 339 338 338 337 336 335 334 332 330 330 329 330 331 333 331 330
333 334 330 327 322 315 314 310 308 305 299 303 302 307 308 310 310 312 314 315 314 314 316 317 319 321 322 321 321 317 320 324 327 332 333 336 341 341 342 342 343 343 344 346 347 346 347 346 346 348 350 349 349 349 349 348 348 346 345 345 343 342 341 339 339 338 336 336 337 337 335 335 333 336 339 345 344 344 341 340 339 338 338 338 337 335 331 332 332 330 332 329 329 331 331 331 331
333 331 331 326 317 319 314 306 304 303 306 306 304 307 309 312 311 312 314 315 316 316 317 315 316 318 319 323 325 321 325 320 331 333 335 337 340 342 342 343 342 342 344 346 347 346 347 345 346 347 350 350 349 350 349 348 348 348 347 345 344 343 341 340 339 338 337 335 336 336 336 336 334 334 335 346 342 342 341 340 339 339 338 337 335 332 331 333 333 331 332 331 329 330 331 330 331
328 326 325 323 319 319 308 306 305 305 308 308 307 309 311 313 313 312 313 314 315 316 316 316 317 320 316 323 325 328 330 331 331 334 339 340 342 341 342 342 342 342 343 346 347 346 349 344 346 348 349 350 349 349 349 349 348 347 347 346 345 343 342 340 338 338 338 337 336 336 336 337 334 334 334 340 343 340 341 340 338 337 337 336 335 333 330 332 332 330 330 331 330 329 330 331 330
331 323 321 315 313 312 306 307 306 308 308 309 310 311 313 313 313 312 312 312 313 315 315 316 319 317 316 322 318 328 332 332 333 335 339 340 341 341 343 343 341 341 344 346 346 347 348 343 345 347 348 350 349 349 348 348 348 347 347 346 345 343 341 340 338 337 338 338 336 335 335 336 335 333 335 335 336 335 335 335 338 335 338 336 335 333 330 330 332 330 329 329 330 331 331 331 332
326 322 323 316 309 312 308 306 306 310 310 310 312 313 315 314 312 311 311 313 313 314 315 317 319 313 318 319 318 329 331 335 336 336 339 341 340 341 341 342 341 342 344 345 346 348 349 343 344 345 346 348 349 349 348 348 348 347 347 346 344 343 341 339 338 336 336 338 337 337 336 338 335 334 335 334 335 335 334 334 333 335 336 336 335 334 332 330 333 330 331 331 329 329 329 329 330
322 321 313 312 312 305 306 307 305 309 310 312 312 314 315 314 312 311 311 311 313 313 314 317 318 313 317 314 319 326 331 336 337 338 339 340 341 342 341 342 342 342 343 344 346 346 347 347 342 343 344 346 347 348 348 348 348 347 346 346 345 343 342 339 338 336 334 336 336 338 338 338 334 334 335 335 334 334 334 335 334 335 335 331 332 335 333 330 332 331 330 331 330 329 328 330 329
311 319 320 310 306 303 304 305 308 310 310 312 314 316 314 314 311 311 311 313 314 313 314 316 315 316 318 317 321 331 333 336 337 335 339 340 342 341 340 342 343 343 342 344 345 346 347 349 345 341 342 343 345 346 347 347 348 347 346 346 346 343 342 340 338 336 334 336 336 337 337 339 337 336 336 340 338 338 334 334 333 333 333 332 333 333 332 331 331 333 332 330 331 330 330 329 329
310 311 313 306 305 305 306 306 308 309 311 312 312 316 317 313 312 311 312 311 313 313 314 316 314 319 315 316 322 329 334 334 337 338 339 341 341 341 341 342 342 342 344 345 346 345 347 347 349 346 339 340 342 342 343 345 347 347 346 347 347 344 343 341 339 337 335 335 336 337 337 336 339 339 339 340 338 338 335 334 334 333 333 332 332 333 332 332 332 332 332 332 331 331 330 330 330
312 315 310 307 306 307 308 305 307 309 310 311 313 315 317 311 312 311 311 312 313 312 313 317 322 320 312 315 325 329 330 335 337 338 339 340 341 341 341 341 342 342 343 345 344 344 346 346 346 348 344 336 338 339 340 341 344 346 345 345 345 345 345 343 342 341 339 339 340 339 338 339 342 342 342 341 339 338 337 338 338 335 333 333 332 332 332 332 332 332 332 331 331 331 331 331 331
312 315 311 305 308 307 306 306 308 306 307 313 315 315 316 313 313 311 312 311 312 312 315 316 318 321 315 319 322 325 332 336 336 338 339 340 341 340 341 341 342 341 343 344 343 343 344 345 345 345 347 347 347 341 336 337 340 343 342 342 343 343 343 343 342 341 341 341 340 339 338 338 340 341 342 340 338 338 337 336 337 337 334 333 332 332 333 332 332 332 332 332 332 331 331 332 332
312 319 311 308 306 306 308 304 306 307 308 313 314 314 314 315 314 312 313 310 312 314 317 318 321 317 313 316 315 324 329 335 336 338 339 339 340 340 340 341 341 342 342 342 343 343 342 344 344 344 346 346 346 345 345 345 334 338 339 339 340 340 340 339 339 338 338 338 338 337 337 336 337 338 338 338 337 336 336 335 335 334 334 333 332 332 332 333 333 332 331 332 333 333 332 332 335
319 315 311 305 303 303 307 306 308 308 308 314 315 315 314 316 315 313 314 312 313 315 317 316 320 316 318 318 319 328 328 335 336 338 338 337 338 338 339 340 340 340 341 341 342 343 343 343 344 344 344 344 344 344 344 344 337 333 335 336 337 337 337 337 335 334 333 333 334 333 332 335 334 337 334 338 334 335 335 333 333 334 336 333 333 332 332 332 333 333 333 333 333 333 334 333 334
318 316 305 303 301 304 307 306 308 304 312 314 316 315 313 313 317 315 314 313 313 313 315 319 318 327 323 325 328 330 331 336 335 336 336 335 336 336 337 338 339 339 339 340 341 341 342 342 342 343 343 342 342 342 341 343 342 333 334 332 332 333 335 334 333 330 329 328 330 329 331 336 334 334 340 336 332 338 330 328 331 333 335 336 336 336 336 337 336 334 334 334 333 335 336 335 332
316 306 303 301 303 304 308 307 309 313 311 314 314 315 314 313 316 316 313 312 316 314 314 320 325 326 328 330 330 331 334 334 335 334 333 333 334 334 334 336 336 336 338 338 340 341 341 342 342 341 341 341 341 340 340 341 343 339 343 344 343 339 334 333 338 340 338 337 329 336 337 336 334 336 336 336 338 336 335 325 327 330 332 333 336 337 336 336 336 334 333 333 333 335 333 335 332
310 308 304 300 304 307 311 311 312 312 312 315 315 314 314 314 314 316 314 314 314 311 312 316 316 321 328 329 329 330 332 333 333 333 332 332 332 332 332 335 335 336 337 337 339 340 340 341 341 340 340 339 339 340 340 342 341 342 342 342 341 336 339 340 339 340 339 338 339 337 334 335 337 339 338 338 338 331 335 324 325 328 330 331 332 334 334 334 335 335 335 336 336 334 335 333 333
313 307 301 302 308 310 310 313 315 315 316 315 314 314 314 315 314 315 313 313 314 310 310 312 313 314 316 321 329 329 331 332 332 332 331 331 332 332 333 333 334 335 336 337 338 339 340 340 341 341 340 339 338 339 340 341 341 341 340 340 339 339 340 340 341 340 339 339 338 337 335 336 337 337 338 336 336 339 337 325 323 325 327 328 328 333 333 333 333 333 333 333 334 331 332 332 332
314 307 303 305 309 306 311 314 315 316 315 311 312 314 313 314 314 314 313 313 313 312 312 312 312 314 316 317 325 328 329 330 331 332 331 332 333 333 334 334 334 335 337 339 338 338 339 340 341 340 341 339 339 338 339 338 340 339 339 340 340 339 339 339 339 340 340 339 338 336 336 336 337 336 337 338 338 337 337 338 337 335 335 335 328 334 334 335 334 333 333 332 332 332 331 330 330
313 307 309 309 309 305 311 313 316 316 317 313 313 310 310 315 313 313 313 311 313 314 315 316 315 316 316 316 320 328 328 329 330 330 331 331 331 332 333 335 336 337 338 336 337 338 339 339 340 340 340 340 339 338 339 338 339 338 338 340 340 340 340 339 339 340 339 340 339 336 335 336 336 335 336 336 336 335 335 335 336 336 335 336 336 334 334 334 333 332 333 332 331 331 331 330 331
306 309 310 310 310 306 311 312 313 316 314 313 312 313 314 313 312 313 312 313 316 317 317 316 316 317 317 316 319 326 328 328 329 329 331 331 331 332 333 334 334 334 336 336 338 338 339 339 339 340 339 339 339 339 339 338 338 339 339 340 340 339 340 340 339 340 339 339 340 339 336 334 334 333 333 335 334 335 333 334 333 334 334 334 335 334 333 333 332 331 331 331 331 331 331 331 331
310 306 310 309 310 307 311 311 312 316 314 312 314 315 311 311 308 311 310 315 317 318 317 316 318 321 317 318 322 324 328 329 330 331 332 332 332 332 333 333 335 336 336 336 337 338 338 338 339 339 339 339 339 339 338 338 339 339 339 338 338 338 339 339 339 340 340 339 339 338 335 335 333 332 333 333 333 334 333 334 333 333 332 333 333 333 332 332 331 332 332 332 331 332 331 331 329
308 307 311 310 310 310 312 311 313 314 314 315 313 310 310 312 311 311 311 315 316 316 316 316 319 323 324 323 324 325 327 329 330 332 332 333 333 333 334 334 335 336 334 335 337 337 338 339 339 339 339 339 339 339 338 339 339 339 339 338 338 336 339 339 340 341 340 339 339 339 337 334 333 333 333 334 334 333 333 333 333 332 332 332 333 331 332 331 331 331 331 331 331 330 330 330 330
310 309 311 311 309 311 312 312 312 314 314 313 311 309 311 312 312 310 312 314 316 315 315 316 318 319 321 323 324 325 326 327 330 330 331 333 333 332 332 333 333 333 335 336 336 337 338 339 339 339 339 339 339 339 338 338 339 339 339 339 338 338 338 339 340 340 340 339 338 338 338 335 334 334 333 334 333 333 334 334 332 331 330 331 331 330 331 331 330 331 331 330 330 330 329 330 329
312 311 310 309 310 310 313 311 312 314 313 313 308 308 309 311 309 305 313 315 314 315 315 316 316 316 318 320 322 325 325 326 328 330 330 331 331 331 332 333 333 333 335 335 336 337 338 338 339 339 339 339 340 339 339 339 339 339 339 339 339 339 339 339 339 339 339 339 339 339 338 337 336 335 334 334 334 333 333 333 332 332 330 330 331 331 331 331 331 331 331 329 329 330 329 330 329
311 310 310 309 311 312 312 311 312 313 312 314 311 308 310 308 308 306 311 314 315 314 315 314 315 316 316 317 318 322 324 326 328 329 328 329 331 331 332 333 334 334 334 335 336 338 337 337 338 339 339 340 339 339 339 339 339 339 339 340 339 339 339 339 338 339 337 339 339 340 338 337 336 335 336 335 334 333 333 332 333 332 331 331 331 330 330 331 330 331 331 331 331 331 330 330 330
311 310 303 305 309 307 312 309 312 312 310 314 313 308 306 308 305 309 311 313 314 313 313 314 314 315 315 316 316 317 318 322 327 327 327 328 331 332 331 334 334 334 335 336 337 337 336 337 337 338 339 339 340 339 339 340 339 339 339 339 339 340 339 338 337 338 338 339 339 340 339 339 337 336 335 336 335 334 333 332 331 332 331 331 331 330 330 330 329 329 329 330 329 329 328 328 329
311 309 305 303 303 303 309 312 314 311 311 313 310 295 300 305 309 311 311 311 312 312 312 314 315 315 315 315 315 316 316 319 321 323 324 325 328 330 330 332 334 334 334 335 336 335 337 337 338 338 338 338 339 339 339 339 339 339 339 340 339 339 338 338 337 338 337 338 338 339 339 338 337 337 336 336 335 334 334 333 333 332 333 333 332 330 329 329 328 327 327 328 325 326 326 327 327
303 305 306 300 298 297 307 309 312 307 313 314 309 296 300 305 308 312 312 311 309 310 312 314 314 315 315 316 315 315 315 316 316 317 318 320 323 328 330 331 332 333 333 334 334 335 335 336 337 337 338 338 338 338 338 338 339 339 339 339 339 340 339 339 338 338 337 338 338 338 338 338 337 337 337 336 335 335 334 333 333 334 334 334 332 331 330 329 328 327 327 327 327 326 326 325 326
306 299 295 302 298 301 306 310 310 303 310 313 308 298 300 305 308 312 312 311 309 310 312 313 315 316 316 315 315 315 315 316 316 317 316 315 319 322 327 329 331 329 331 331 333 334 333 335 336 336 337 337 337 338 338 339 338 339 339 336 339 340 339 339 338 338 338 338 337 337 338 338 337 337 337 336 335 334 334 334 334 334 334 333 332 331 330 328 328 327 328 328 326 326 326 326 327
303 299 296 296 299 300 302 307 310 309 309 310 306 299 302 303 308 310 312 310 312 310 311 313 314 315 315 315 315 315 316 316 317 319 318 317 316 318 322 325 327 327 328 329 330 332 333 333 334 335 335 336 337 337 338 338 338 338 338 338 339 339 338 338 338 339 338 338 338 337 338 337 337 337 337 337 335 334 334 334 334 334 335 333 332 332 330 329 328 327 327 327 327 326 326 326 327
295 300 296 299 297 299 297 306 309 309 308 304 308 302 303 306 308 310 312 312 311 310 312 313 313 314 315 316 315 315 316 316 317 317 318 318 317 318 319 321 322 324 325 328 329 329 329 332 334 335 335 336 336 336 337 337 338 338 338 338 337 337 338 338 338 338 338 338 338 337 338 337 337 337 337 337 336 335 335 334 334 334 334 333 332 332 330 329 328 328 326 327 327 325 324 325 326
294 296 296 298 300 300 298 299 305 308 307 304 305 304 303 305 308 309 309 312 310 309 311 312 312 312 313 313 313 314 314 314 315 316 320 319 317 318 318 319 321 323 324 325 326 327 328 329 331 334 333 334 335 336 336 336 337 337 337 337 337 337 336 337 338 337 338 338 337 338 338 337 337 337 337 336 335 334 334 334 333 334 334 333 332 330 330 328 328 328 326 326 327 327 326 326 326
298 299 297 298 296 297 298 302 308 307 304 302 303 302 303 305 307 309 309 310 310 310 311 312 312 312 311 311 311 312 314 315 317 318 318 319 317 318 317 318 320 322 322 319 320 323 324 326 330 332 333 333 334 334 334 334 334 333 333 335 334 334 335 335 337 337 337 337 337 337 338 338 337 336 337 336 335 334 334 334 333 333 333 332 331 329 329 328 328 327 326 325 326 326 326 325 326
302 301 300 298 297 299 302 302 307 309 305 303 303 304 305 306 307 308 309 310 310 310 309 310 311 310 310 311 311 312 313 313 315 316 317 316 314 315 315 316 316 316 316 317 318 318 320 322 326 327 331 333 332 332 332 332 331 331 332 331 331 333 333 335 334 336 336 336 337 337 337 337 337 336 336 336 335 332 334 334 333 333 333 332 330 330 330 330 330 329 327 325 323 324 324 325 325
297 296 298 298 299 297 301 301 305 309 303 301 304 303 303 305 307 308 310 307 307 308 308 308 309 309 309 309 310 312 313 315 314 312 313 312 313 312 312 313 312 312 312 312 313 316 319 322 322 325 328 330 332 332 332 332 333 332 332 332 332 332 333 332 332 334 335 336 336 336 336 337 337 337 336 336 335 335 334 333 333 332 332 332 331 331 330 327 329 328 327 325 326 323 323 326 326
298 295 294 297 297 300 300 301 304 305 304 302 303 302 302 305 307 308 309 309 309 309 308 308 308 308 308 309 310 310 309 308 308 308 311 311 312 311 310 309 309 309 309 308 310 311 312 314 316 319 320 323 328 331 332 332 333 334 333 333 333 333 335 335 335 335 336 335 336 336 336 336 336 336 337 336 335 335 334 333 333 333 332 332 330 329 329 329 329 328 328 326 325 325 324 326 326
297 296 292 291 296 295 292 297 301 302 303 300 301 299 302 304 305 305 307 307 307 308 307 308 308 308 308 306 304 305 305 306 305 306 307 307 307 307 309 307 306 307 307 307 307 307 308 308 310 315 320 321 322 325 329 332 333 334 334 333 334 333 332 333 334 334 334 334 334 335 335 336 336 336 336 336 335 334 334 333 333 332 332 332 331 330 329 329 329 328 328 326 326 323 324 324 325
298 297 293 293 293 295 296 295 299 301 301 302 301 299 299 301 301 302 305 307 306 307 307 307 308 309 307 305 304 303 303 304 303 303 303 303 303 302 303 303 304 303 304 304 305 305 306 306 307 309 309 310 312 316 319 326 330 332 332 332 333 332 332 331 330 330 332 332 332 333 333 335 335 335 336 336 335 334 334 333 332 332 332 332 332 330 329 329 329 329 328 327 326 323 323 325 326
296 298 296 296 298 296 297 298 297 296 294 297 298 291 292 298 298 299 302 303 304 306 305 306 302 302 302 300 301 300 301 302 301 300 300 301 301 301 301 301 300 301 301 302 303 304 304 304 304 304 306 307 307 309 314 321 327 328 328 327 326 327 326 327 328 328 330 332 332 334 335 335 334 334 334 334 334 333 333 334 333 332 332 331 331 330 330 330 330 329 329 328 327 327 324 324 324
292 294 300 300 299 298 297 295 294 287 286 294 297 290 287 296 296 297 299 300 301 304 302 298 299 299 299 298 298 299 299 299 300 299 299 299 299 299 299 299 299 298 299 301 302 302 303 302 302 302 303 304 305 306 309 312 317 324 327 327 327 326 326 328 331 332 332 332 334 334 334 335 335 334 334 334 334 334 334 334 334 333 332 332 332 331 330 330 330 330 330 329 328 327 326 322 323
291 300 300 300 298 297 295 295 292 289 292 294 295 295 288 288 294 297 298 297 298 297 295 296 296 297 297 298 298 298 298 298 298 298 298 299 299 299 298 299 299 298 299 299 299 300 300 301 301 301 301 302 303 304 305 308 310 314 321 324 326 326 327 327 329 330 332 332 332 332 333 333 334 334 334 335 335 334 334 334 334 333 332 332 331 331 330 331 331 331 331 330 329 328 327 323 323
294 298 302 299 298 298 297 294 291 291 289 285 290 295 287 287 293 296 297 295 294 292 294 294 295 296 296 296 296 297 297 297 297 297 296 297 297 297 298 298 299 299 299 298 298 299 299 300 300 301 301 301 302 302 303 305 307 308 309 311 316 323 325 327 328 329 330 331 330 331 331 332 333 334 334 334 335 335 333 333 334 333 332 332 331 331 332 332 331 331 330 329 328 328 327 327 325
296 299 301 300 301 300 297 294 292 290 287 283 286 292 285 286 292 294 295 294 290 291 292 293 294 295 295 295 295 296 296 296 296 296 296 297 297 297 297 298 298 298 299 299 299 298 298 298 298 298 298 300 301 301 302 303 304 305 306 307 308 309 311 319 324 326 327 328 328 329 330 330 331 332 333 333 334 334 333 333 332 332 332 332 330 331 331 331 331 331 330 330 329 328 328 327 325
301 301 298 298 297 296 293 295 293 289 282 285 290 291 287 281 289 291 290 290 290 290 292 293 294 294 294 295 295 295 295 295 295 295 295 296 296 297 297 296 296 297 297 297 297 297 297 296 296 296 296 298 299 299 300 301 303 304 304 304 305 306 309 310 311 316 322 324 325 326 327 328 330 330 331 331 332 333 333 332 332 332 332 331 330 330 330 331 331 331 330 330 329 329 328 327 326
300 297 294 293 291 293 290 290 291 283 280 288 292 290 288 280 286 290 292 293 294 293 290 291 291 292 293 293 294 294 294 293 294 294 293 294 294 294 295 294 295 294 294 294 295 295 295 294 294 294 294 295 296 297 298 299 301 302 303 303 304 304 305 307 308 309 310 313 320 323 325 326 327 328 330 330 330 331 331 331 331 331 330 331 330 331 331 331 330 331 330 330 329 329 329 327 326
297 295 293 285 283 284 279 285 279 279 280 287 291 293 286 286 288 289 291 292 292 292 291 290 291 291 292 292 292 293 293 293 292 291 291 292 292 292 292 292 292 292 292 292 292 292 293 293 292 292 292 293 294 296 296 297 298 299 300 301 302 303 303 305 306 306 308 309 311 312 316 321 324 325 326 327 329 330 330 329 330 330 330 331 331 331 331 331 330 330 329 329 329 328 328 327 326
293 291 288 284 280 277 276 280 283 283 285 289 290 294 286 289 288 290 289 290 291 291 291 291 291 291 291 291 291 291 291 291 290 290 290 290 290 290 291 291 291 291 291 291 290 290 291 291 291 291 291 292 293 294 294 295 297 298 299 299 299 300 301 303 304 303 305 306 308 309 311 313 316 319 322 325 327 328 328 329 329 330 330 331 330 330 330 331 330 329 329 328 328 328 328 327 326
293 295 291 287 285 279 275 279 276 278 282 286 289 286 282 282 283 291 291 291 291 291 291 292 292 291 291 291 291 290 290 289 289 288 288 288 288 289 289 290 290 290 290 290 289 289 290 290 289 289 290 290 291 292 293 293 294 297 297 298 298 298 299 300 301 303 303 304 306 307 308 309 310 312 315 320 322 324 326 327 328 328 328 329 329 329 329 329 329 329 328 328 328 328 328 327 326
290 291 294 287 285 289 281 282 283 280 282 282 285 284 286 284 291 291 291 290 290 290 290 290 289 290 290 289 288 288 288 288 288 288 287 287 287 288 288 288 288 288 289 289 289 289 288 289 289 289 289 289 290 291 291 292 293 295 295 295 295 296 297 298 299 300 302 303 304 303 304 306 307 307 309 310 312 316 320 323 325 326 327 328 328 328 328 328 328 327 327 327 326 328 327 326 326
290 292 286 290 294 291 284 283 284 283 283 279 289 285 285 289 289 289 288 288 287 288 288 288 288 288 288 287 287 287 287 287 287 287 287 287 287 287 287 287 287 287 288 288 288 288 288 288 288 288 288 289 289 290 290 291 292 293 293 294 294 294 295 295 296 298 299 301 302 302 302 304 304 305 307 309 309 311 313 316 318 321 324 325 326 326 326 326 326 326 325 325 325 326 326 325 326
292 286 290 293 292 291 287 280 282 281 278 280 287 282 281 283 279 289 287 286 286 286 287 287 287 287 286 286 286 286 286 286 286 286 286 286 286 286 287 287 286 286 287 288 288 288 288 288 288 287 288 288 288 289 290 290 291 292 292 292 292 293 293 293 295 295 297 298 299 300 301 301 302 303 304 305 307 308 309 309 312 314 317 320 322 324 324 325 324 324 324 324 324 325 325 325 325
292 290 297 289 283 282 287 284 275 276 274 277 282 285 284 286 285 285 283 283 284 285 286 285 284 285 284 284 285 285 286 286 285 285 285 285 285 286 286 286 287 287 287 287 288 288 288 288 288 287 287 288 288 288 289 289 290 291 291 291 291 291 292 292 292 294 295 296 296 298 299 299 300 301 302 302 303 304 305 306 308 310 312 313 316 318 320 321 322 322 322 322 323 323 322 322 323
294 295 292 290 289 286 283 283 283 283 276 274 276 281 280 283 283 283 282 283 284 284 284 283 283 283 284 284 284 284 284 284 285 285 285 285 285 285 285 285 286 286 286 287 287 287 287 287 287 287 287 287 287 287 287 288 289 290 290 290 290 291 291 291 291 292 292 293 294 296 297 297 297 299 300 301 301 302 303 303 304 305 308 310 312 314 316 318 319 320 321 321 321 322 321 320 321
287 288 286 287 288 289 288 285 282 280 277 277 277 275 280 281 284 282 282 283 284 284 283 283 283 284 284 284 284 284 284 284 284 284 284 285 285 285 286 286 286 286 286 287 287 286 287 287 286 287 286 286 286 286 287 287 288 289 289 288 289 289 289 289 290 291 291 291 292 293 295 295 296 297 298 298 299 300 301 301 302 302 304 305 307 309 312 314 315 316 318 319 320 320 319 319 319
288 287 285 287 285 283 278 278 285 281 280 276 276 274 278 280 283 283 282 283 283 284 283 283 283 283 283 284 284 284 283 284 284 284 285 285 285 285 286 286 286 285 285 285 286 286 286 286 286 286 286 285 285 285 286 286 287 288 288 288 288 289 289 289 289 289 290 290 291 292 293 293 293 295 296 296 297 298 299 299 300 300 301 302 304 305 307 309 310 312 314 317 317 316 316 316 317
Wind_Speed
8 7 4 2 3 2 3 2 5 3 3 4 2 3 4 2 2 5 5 2 4 3 1 1 3 6 3 4 7 5 3 3 3 6 5 3 1 4 8 4 9 13 13 14 13 14 13 12 13 15 17 18 17 17 16 15 15 14 13 13 12 13 13 13 13 12 12 12 12 12 12 11 10 10 11 11 9 10 11 10 9 9 8 7 7 7 6 5 4 4 3 3 6 8 8 9 7
7 6 2 3 2 2 3 1 4 3 4 4 3 1 5 2 4 6 8 7 4 4 1 2 5 3 1 4 2 2 4 3 5 4 4 3 2 5 8 5 12 15 14 13 13 14 14 14 12 14 18 18 17 17 16 15 15 14 14 13 12 11 10 10 10 11 9 8 11 13 12 11 11 11 11 10 10 10 10 9 8 8 7 7 7 7 6 5 5 6 5 5 2 6 11 8 7
7 4 2 3 4 3 0 2 5 3 5 6 5 2 3 2 4 7 9 7 4 3 1 2 3 4 4 3 4 4 3 0 1 1 3 3 5 6 8 7 13 13 15 11 12 13 12 13 12 14 17 18 17 17 17 16 15 15 14 13 13 12 11 10 9 8 8 8 6 9 13 12 12 11 11 10 10 10 10 9 8 7 6 6 6 7 7 5 5 3 3 4 5 3 3 5 4
5 1 3 3 3 1 3 3 5 4 6 1 1 6 2 3 5 7 7 5 1 2 2 5 6 1 4 4 2 1 1 2 3 2 2 4 1 8 9 9 13 13 12 11 11 12 11 14 12 13 15 17 17 17 17 16 16 16 15 14 13 12 11 10 9 9 8 8 8 5 7 7 12 13 10 11 11 11 10 9 7 7 7 6 6 7 5 3 1 2 2 3 2 1 4 4 2
4 1 3 3 4 4 3 2 3 3 6 3 2 6 2 3 6 7 8 4 1 4 4 2 3 2 3 4 1 3 4 3 2 1 2 3 3 10 9 11 14 13 13 13 12 12 11 16 11 12 13 15 17 18 17 17 17 16 15 15 13 12 12 11 11 10 8 8 9 9 7 6 4 6 10 11 10 11 9 9 9 8 8 8 7 5 3 2 3 2 2 1 0 2 4 3 3
2 2 1 3 3 3 2 3 6 7 2 3 1 4 2 4 7 7 7 3 1 5 3 5 4 3 3 1 1 2 3 1 3 2 1 4 7 12 10 12 13 13 13 12 11 11 11 14 12 11 12 14 16 17 17 17 17 15 15 15 14 13 12 11 9 9 9 8 7 10 10 7 6 5 6 11 9 10 10 9 8 9 7 6 4 3 3 3 3 2 3 2 1 3 3 2 3
2 2 3 3 3 3 5 6 6 5 2 2 4 4 5 6 6 7 5 1 3 4 2 3 1 2 4 2 3 1 2 2 2 4 1 6 9 11 11 12 13 14 13 12 10 10 12 12 12 11 11 12 16 16 16 16 17 17 16 15 14 12 12 11 7 8 8 10 8 8 8 9 7 7 7 10 12 10 10 8 7 6 6 5 3 3 2 3 4 2 2 3 3 2 2 2 1
2 4 1 5 3 3 7 6 7 4 1 2 3 5 7 8 7 4 3 4 5 6 5 2 2 5 3 2 3 4 1 0 3 2 4 7 11 11 12 12 13 13 13 12 11 9 13 12 11 11 10 10 13 15 15 15 15 15 15 15 14 12 10 9 8 7 9 9 10 9 7 8 8 7 9 7 8 7 7 6 8 5 7 3 2 2 2 3 4 3 1 2 2 3 2 3 3
1 3 1 3 7 2 5 7 7 1 2 2 4 3 6 6 6 5 4 2 1 4 2 2 2 5 4 2 2 4 2 3 2 2 5 8 12 11 10 13 13 13 14 12 10 10 13 9 10 10 10 11 11 12 13 13 14 14 14 14 13 12 12 11 10 8 8 8 10 11 9 10 8 6 6 7 7 8 7 6 7 6 7 6 4 4 4 3 5 3 4 4 3 2 1 2 2
2 2 4 4 3 8 7 6 6 2 3 1 4 4 5 6 6 4 3 3 2 1 0 1 0 5 1 2 2 4 2 3 4 6 6 9 11 11 11 12 13 14 13 12 11 10 11 11 8 9 10 10 11 11 12 12 13 14 14 12 11 13 12 12 9 8 8 9 10 8 10 8 8 7 8 8 8 7 6 8 7 6 8 3 4 7 4 3 6 5 3 5 4 3 4 5 4
3 1 3 6 7 8 8 7 7 3 3 2 4 2 3 5 5 2 3 1 1 2 1 3 5 4 3 1 2 4 3 2 4 6 8 10 10 11 11 11 12 13 13 12 11 11 11 13 9 8 9 9 10 10 11 11 12 14 13 11 9 13 11 11 9 8 8 11 10 8 9 6 10 9 7 6 5 4 3 6 5 6 7 6 6 6 4 3 4 8 6 4 5 5 6 5 5
3 4 3 8 9 8 7 7 4 3 2 2 3 3 2 4 4 3 1 4 4 3 3 6 2 0 3 1 3 4 5 3 3 6 8 9 9 10 11 10 11 12 12 12 12 11 11 12 10 9 7 8 9 9 9 10 11 12 11 9 8 11 11 10 10 9 10 9 7 6 7 5 8 8 10 7 8 5 3 5 6 6 7 7 8 7 5 5 6 7 7 7 6 6 6 6 6
4 3 6 6 8 7 2 3 3 1 3 5 2 4 4 2 4 4 2 2 0 2 2 4 4 3 2 1 3 3 4 5 4 7 9 9 8 9 9 9 11 12 11 11 11 11 11 12 11 11 9 6 7 8 8 9 9 9 10 9 9 8 9 8 9 9 9 9 9 7 7 6 5 6 8 9 8 8 8 5 3 6 9 9 8 9 9 8 7 7 7 5 5 5 7 8 7
5 4 4 8 3 4 5 4 1 6 6 5 3 3 2 2 3 4 3 1 2 1 4 3 2 2 4 2 4 2 4 6 5 8 8 8 8 8 9 8 10 10 11 11 11 11 11 11 11 11 11 10 11 7 6 7 7 9 9 8 8 7 6 6 7 7 7 7 7 6 8 8 4 2 3 7 9 9 9 7 6 4 6 8 7 8 9 8 7 8 7 7 8 8 8 8 9
2 1 5 7 4 4 5 6 5 6 6 6 3 2 1 3 3 1 5 3 5 3 2 1 2 5 4 5 6 5 3 6 6 7 8 8 8 8 9 8 9 9 9 11 11 11 11 11 11 10 11 11 11 10 10 7 5 6 7 8 8 6 6 6 5 6 6 6 6 7 8 8 5 4 3 5 6 7 9 9 7 7 6 6 6 6 9 9 9 8 8 7 8 10 11 10 7
2 2 5 7 9 8 5 8 3 4 5 6 4 1 3 3 1 3 5 5 3 2 3 2 2 3 5 5 5 5 3 6 7 7 8 8 8 7 8 7 8 9 8 10 11 11 10 11 10 10 10 11 11 10 9 10 7 5 6 7 7 7 7 6 5 6 6 5 6 8 9 8 8 6 6 5 6 7 7 8 9 8 7 7 7 8 9 9 9 9 9 9 10 11 12 10 7
1 1 5 7 12 9 6 7 7 7 4 5 1 1 3 2 1 0 3 3 4 2 2 2 2 1 4 4 4 4 3 7 7 9 9 8 7 7 6 6 7 8 7 10 10 11 11 11 12 10 11 11 11 10 9 9 8 6 5 6 6 7 7 6 5 5 5 5 6 7 7 8 9 10 7 8 7 6 7 7 6 7 8 8 9 9 8 6 7 9 10 10 10 9 7 9 10
5 6 7 10 9 10 8 8 7 3 4 6 3 1 2 1 3 3 2 4 4 1 2 3 2 2 0 3 2 2 8 9 9 10 9 9 8 7 7 7 7 8 8 8 9 9 10 11 11 11 9 11 11 9 7 7 8 7 10 9 8 8 7 6 6 8 8 8 7 6 8 8 7 7 9 10 7 7 6 7 7 7 7 6 7 8 9 8 7 7 10 11 12 9 6 7 7
8 3 8 11 10 7 8 6 7 5 4 5 4 2 2 2 3 4 4 2 6 3 6 3 5 3 5 4 4 4 8 9 10 10 11 11 10 11 9 7 8 8 7 7 8 10 9 9 11 11 10 11 11 10 7 7 8 7 9 9 8 10 11 10 10 9 9 9 9 9 8 8 8 7 7 5 6 2 4 7 7 8 8 8 8 8 8 9 9 9 9 9 8 5 7 8 8
11 8 10 13 9 5 6 9 9 6 3 4 4 4 2 2 2 3 3 6 3 2 4 3 5 7 7 4 4 4 6 8 9 9 10 10 10 10 9 10 9 9 9 8 7 8 9 9 11 11 11 11 10 9 8 7 7 8 8 9 9 9 9 9 10 9 9 9 9 9 8 8 7 8 5 2 3 6 6 6 7 7 7 7 8 6 8 9 10 10 10 9 8 9 9 9 8
8 12 13 12 11 7 7 7 10 9 7 5 4 4 3 3 1 3 2 6 2 2 3 5 7 9 9 5 2 4 6 7 9 9 9 10 10 8 9 9 8 8 8 7 7 8 10 10 10 11 11 11 11 9 9 8 8 8 8 9 9 8 7 8 8 9 9 10 9 8 9 8 8 8 8 7 7 8 8 8 7 7 8 8 8 8 9 8 8 10 9 9 10 10 10 9 9
6 17 15 7 7 10 7 7 3 7 3 7 4 6 3 4 3 2 3 5 3 3 4 5 6 8 8 7 1 5 6 7 9 10 10 10 11 10 8 8 7 7 6 7 8 9 10 10 10 10 11 11 12 10 10 9 8 8 9 9 9 7 7 7 7 7 8 10 9 8 8 8 8 8 8 8 8 8 8 8 7 7 8 9 9 9 9 9 9 8 9 9 9 9 9 9 9
11 12 11 11 8 8 4 5 3 5 5 7 7 4 1 3 4 2 4 8 1 3 4 4 5 7 7 5 2 5 7 8 9 10 10 10 11 11 9 8 8 8 7 8 8 8 9 10 11 10 10 11 13 12 10 9 9 10 9 9 9 7 7 7 8 8 9 8 8 7 7 8 7 8 8 8 9 8 8 8 8 8 7 8 8 8 9 9 9 9 9 9 9 9 10 10 10
11 12 12 10 8 11 4 6 5 5 6 7 2 3 6 3 12 3 5 7 5 6 4 2 3 4 2 2 2 5 6 8 9 9 9 9 9 10 9 9 8 7 7 9 9 9 9 11 11 11 11 11 11 12 12 11 10 10 10 9 9 7 7 7 8 10 10 8 7 7 7 7 7 7 9 10 9 8 9 9 9 8 8 8 8 9 9 9 9 9 9 10 10 10 11 11 11
13 12 9 8 8 7 4 6 8 7 7 3 5 6 8 7 6 2 10 7 4 5 2 3 2 2 0 2 2 3 4 5 6 7 7 7 7 8 9 8 8 8 9 9 8 9 10 10 11 12 12 12 11 11 12 11 11 10 10 10 9 8 8 8 7 7 9 8 8 9 8 7 7 9 11 10 9 10 10 10 9 10 10 9 9 9 9 9 9 9 9 9 9 10 10 10 10
14 14 6 5 7 7 6 5 7 11 3 4 7 9 4 4 3 10 14 14 2 1 5 3 3 2 1 2 2 3 4 4 4 5 6 6 6 8 9 9 8 10 10 9 9 9 9 10 12 13 13 11 11 11 10 11 11 10 11 11 10 9 10 10 9 8 8 9 7 8 9 8 8 10 11 10 10 11 10 10 10 10 10 9 9 10 9 9 9 9 9 9 9 10 10 10 10
10 9 6 7 7 7 6 8 7 9 7 9 10 9 7 5 5 9 8 9 3 4 4 1 3 3 2 2 1 1 3 4 4 3 4 5 6 8 8 9 11 10 9 10 10 9 9 10 11 12 13 11 11 11 10 10 10 11 11 11 11 11 10 10 10 11 11 11 10 8 9 9 8 10 12 11 10 10 10 9 9 9 9 9 9 10 9 10 9 9 9 9 9 9 9 9 9
7 11 9 8 5 4 5 8 8 7 5 8 8 9 3 4 7 11 4 4 2 3 3 2 2 2 2 3 3 2 1 2 2 3 6 6 5 6 8 8 9 9 10 11 10 9 10 11 12 12 12 12 12 13 11 11 11 11 11 10 11 11 11 11 11 11 11 11 11 8 8 8 8 9 11 13 12 11 10 10 9 9 9 9 8 9 9 10 10 10 10 10 11 10 10 9 9
4 10 9 9 6 7 7 11 9 11 5 7 5 6 12 9 11 7 8 4 5 6 5 2 1 1 2 2 2 3 3 2 0 2 4 4 4 3 6 6 6 7 7 9 9 10 11 11 11 12 12 13 14 15 13 12 12 12 11 11 10 8 10 10 11 11 11 12 12 12 10 10 9 9 10 13 13 13 11 11 10 9 10 9 8 9 10 9 9 9 10 10 10 10 10 10 9
6 5 6 8 7 9 13 8 8 10 5 9 8 9 11 14 15 8 7 8 7 8 9 6 3 0 1 2 2 2 3 2 2 3 3 5 4 4 6 6 5 6 5 5 8 11 10 9 9 9 11 13 14 14 13 12 13 12 11 11 10 9 10 11 11 11 10 10 11 12 12 13 11 11 13 14 13 12 13 13 13 12 11 10 8 8 10 10 9 9 10 9 9 9 9 9 9
8 4 3 7 10 10 13 12 11 12 5 10 8 11 8 4 4 3 7 6 5 9 10 8 5 3 1 2 3 2 3 4 3 4 5 5 5 4 5 6 5 6 5 6 8 9 10 10 9 9 10 12 12 14 14 14 13 12 12 12 11 11 11 10 10 10 11 11 10 10 11 11 13 14 13 12 12 13 12 12 13 11 9 9 9 9 9 10 9 9 8 9 9 9 9 9 9
7 8 7 4 11 6 10 13 13 15 4 7 8 10 11 8 7 4 5 5 7 9 9 8 6 5 2 2 3 4 4 3 2 3 5 4 5 5 4 5 5 5 7 6 7 7 9 10 10 12 12 13 13 13 13 13 13 12 11 10 11 12 11 11 11 11 11 11 10 11 11 12 12 13 11 12 11 11 12 12 12 9 7 8 9 7 9 10 9 9 9 9 9 9 9 10 9
5 11 6 12 9 8 7 10 12 15 9 8 13 7 1 4 1 2 7 8 6 7 7 7 8 6 4 3 3 4 5 2 4 9 12 9 7 6 5 5 4 6 7 6 7 6 8 9 11 12 13 14 14 14 14 13 12 12 12 12 13 12 11 11 11 11 11 11 11 11 12 12 12 14 14 14 13 13 12 12 12 10 8 9 9 8 11 10 9 9 9 9 10 10 10 11 10
5 10 9 11 14 11 9 6 9 12 13 10 12 12 9 2 4 5 3 5 5 5 7 7 7 7 4 3 3 4 4 3 6 8 11 11 7 7 5 4 5 7 8 8 7 6 7 6 7 9 10 11 12 12 12 11 11 12 12 11 11 12 13 12 12 11 12 11 11 11 12 12 12 13 14 14 13 13 12 10 13 11 10 9 11 9 11 9 9 9 10 9 9 9 9 9 11
7 9 10 10 11 14 12 8 10 12 14 13 13 14 13 11 7 5 5 4 5 5 4 4 3 4 4 2 2 4 4 5 6 6 7 10 9 8 6 5 4 5 5 7 6 5 5 5 5 6 8 9 10 12 13 11 11 12 11 12 12 12 12 12 12 11 11 11 12 12 12 12 12 13 14 14 13 13 12 12 12 13 11 10 8 11 11 10 9 9 10 9 9 10 10 10 10
8 14 14 10 10 11 13 6 9 14 13 12 14 13 13 12 11 10 5 5 4 5 5 5 6 5 3 3 2 2 2 4 3 4 4 6 7 7 8 7 5 4 5 6 7 6 7 7 4 5 5 6 7 8 10 11 10 11 11 10 11 11 12 11 12 12 11 11 12 12 12 12 12 12 13 13 13 12 12 10 10 10 11 11 11 12 12 11 10 10 11 10 11 11 10 9 9
3 11 11 11 11 10 8 5 8 11 9 12 13 13 10 10 9 11 11 1 4 5 6 6 6 4 3 4 4 4 3 2 4 4 5 7 8 9 10 10 10 11 10 11 10 11 11 10 9 8 6 4 5 6 8 9 10 10 10 11 12 11 11 11 12 12 13 13 13 13 12 12 13 13 12 12 12 10 11 10 11 12 10 9 12 13 13 13 12 11 9 8 10 11 11 9 9
8 3 8 8 11 9 9 7 6 8 8 8 11 10 13 9 6 9 6 1 6 6 6 6 7 5 3 3 5 5 3 4 8 6 3 7 10 12 11 10 12 14 14 15 15 13 11 12 11 10 7 7 6 7 7 8 9 8 8 9 10 10 10 11 12 12 13 13 14 14 13 13 13 13 10 12 12 12 11 11 10 11 10 11 10 12 12 10 10 10 8 8 8 9 10 9 8
6 6 3 8 4 5 6 7 4 1 4 3 2 10 9 8 5 6 8 8 7 5 4 4 4 5 4 3 4 8 9 9 6 5 9 12 12 13 10 10 11 12 13 15 14 15 15 12 10 10 10 10 9 8 8 8 9 9 9 8 7 8 8 8 9 10 11 12 13 13 13 13 13 13 13 11 11 11 11 10 10 9 12 9 9 10 10 12 10 11 11 11 9 9 9 8 9
5 3 4 0 1 5 4 3 4 3 1 2 2 4 5 2 4 8 8 8 6 1 1 4 3 5 5 10 11 7 8 8 10 11 12 11 12 12 11 12 11 12 14 15 16 15 12 12 12 11 10 10 10 10 10 11 12 11 11 11 11 11 10 9 10 10 9 10 11 12 13 13 13 13 13 12 11 11 12 13 12 11 12 11 11 12 12 13 12 12 12 12 11 11 10 7 10
6 5 3 4 3 3 3 3 3 4 5 3 1 3 7 6 8 7 4 3 4 6 6 6 3 3 10 8 10 12 12 11 11 14 13 14 14 14 13 13 13 14 14 15 15 15 11 15 14 13 12 12 11 11 12 10 9 9 9 10 10 11 11 11 11 12 11 11 9 10 11 12 14 12 12 12 12 12 11 12 11 12 12 11 11 12 12 12 12 12 12 12 13 11 11 11 9
6 5 8 7 7 10 8 5 6 1 2 5 3 3 3 1 1 1 1 2 5 1 2 4 14 12 11 13 12 13 14 13 14 15 15 14 14 14 16 16 17 15 16 14 14 15 16 15 16 15 11 11 13 14 13 11 8 7 7 7 7 7 9 8 9 9 7 7 8 8 9 9 11 12 11 11 12 12 12 12 13 12 12 11 11 12 12 12 13 13 12 12 14 14 12 10 11
9 6 7 9 11 11 10 7 4 1 2 2 5 6 2 1 2 1 2 1 3 1 12 14 11 11 12 12 12 13 14 13 14 16 16 17 16 17 18 18 17 17 16 14 14 16 18 17 16 16 14 13 13 15 16 13 11 9 9 8 8 9 10 9 8 9 10 10 9 10 8 8 9 10 10 11 12 12 13 13 13 13 12 12 11 11 12 12 11 12 11 11 12 10 11 12 13
7 5 9 12 12 10 10 8 5 3 3 3 5 4 0 2 3 3 3 2 2 12 14 14 12 13 15 13 14 14 14 14 13 15 16 17 17 17 17 17 16 16 14 15 15 16 17 17 17 17 14 14 15 15 16 16 13 12 11 10 8 8 9 11 11 11 11 10 11 11 10 10 10 10 10 10 11 12 12 13 13 13 12 13 11 11 12 12 11 11 11 12 11 11 12 12 12
4 4 7 10 9 9 11 8 6 4 4 0 3 4 1 2 1 3 2 3 13 13 12 12 13 14 15 15 14 15 15 16 16 15 17 17 17 17 16 17 16 16 15 15 14 13 13 14 15 16 16 15 15 17 15 15 13 12 12 12 12 10 11 10 10 9 10 9 11 11 11 11 11 11 10 10 10 11 11 11 12 13 12 13 12 12 13 13 14 13 12 11 13 13 12 13 12
2 7 6 7 8 7 8 6 6 5 2 3 7 6 2 3 2 3 2 7 11 8 10 12 13 14 14 13 14 15 14 14 16 17 17 17 16 16 15 14 18 16 14 14 14 13 14 13 16 17 19 14 15 17 16 17 16 14 14 14 15 13 12 11 10 10 10 9 10 10 9 9 9 10 10 11 10 12 13 12 13 14 14 13 12 13 14 14 13 13 14 13 12 13 12 12 13
11 13 13 9 8 7 4 5 4 3 2 3 8 10 4 2 2 2 5 6 9 8 9 10 13 14 15 15 15 14 14 15 14 15 16 16 15 16 17 19 18 18 16 17 17 16 15 16 16 17 17 15 17 18 18 18 16 16 14 15 16 16 16 14 13 12 11 11 11 11 10 8 8 8 9 10 11 10 11 12 12 13 13 12 11 13 13 13 13 12 13 13 13 14 12 13 11
8 7 12 11 8 7 6 2 2 3 3 5 4 10 7 3 4 8 5 3 4 11 14 13 14 15 14 13 13 15 16 15 15 16 16 16 17 19 19 20 20 20 20 20 18 17 17 16 18 19 20 19 17 16 17 17 15 16 16 17 17 16 16 13 14 15 15 15 13 12 10 10 9 7 7 8 9 10 10 11 11 12 12 12 13 12 12 12 12 12 11 10 10 12 12 11 13
2 11 10 9 6 4 4 4 2 4 2 2 1 7 3 1 9 3 11 13 15 12 12 13 14 14 14 15 16 15 14 16 16 16 16 17 17 18 18 18 18 20 18 19 18 16 15 16 19 19 20 20 18 16 16 17 16 16 16 16 16 14 15 15 14 15 14 13 13 13 13 11 10 9 9 8 8 9 9 10 10 11 11 11 12 12 12 12 11 10 11 11 10 10 10 12 13
4 7 9 6 6 3 6 4 1 1 3 3 3 2 2 10 7 9 13 14 15 15 14 14 15 15 15 15 14 14 15 15 15 15 15 15 16 16 16 16 16 15 17 17 17 16 15 15 17 18 17 17 17 17 17 17 16 15 15 14 14 13 14 13 12 13 13 12 11 12 12 12 12 12 12 10 10 10 8 9 9 10 11 12 12 12 12 12 11 11 11 10 10 12 11 13 14
4 5 2 3 4 4 5 6 5 3 3 4 2 2 2 7 3 8 13 13 14 13 13 13 14 14 14 13 14 15 15 15 13 14 14 15 15 15 14 15 14 14 16 15 15 16 15 16 17 19 19 19 18 17 15 17 15 15 15 14 13 12 12 11 11 10 12 13 12 12 12 12 11 12 12 12 13 12 11 9 9 10 10 10 11 11 10 11 10 11 11 10 10 10 11 11 12
2 1 3 1 2 4 2 1 2 4 5 5 2 1 5 10 8 7 9 11 13 13 14 14 15 13 12 13 14 13 13 13 13 13 13 15 14 14 13 13 13 13 15 14 16 15 15 15 16 16 17 17 17 17 16 15 15 13 16 16 16 15 12 11 10 10 11 11 11 12 12 11 11 11 11 12 13 13 12 11 9 9 10 10 10 11 11 10 10 10 10 11 12 8 11 14 12
4 4 2 3 5 2 6 4 4 0 2 2 5 8 9 9 8 7 8 10 12 12 13 14 13 13 13 13 12 12 12 12 12 12 12 13 13 13 12 13 13 14 14 15 16 15 16 16 17 18 18 16 18 16 16 14 14 14 15 16 16 17 16 16 14 15 14 12 11 10 10 11 11 11 10 10 12 12 11 11 11 10 9 8 9 9 9 9 10 10 10 10 11 11 11 11 10
5 2 5 4 1 1 1 3 2 1 3 2 4 10 11 10 6 7 6 10 11 11 12 12 12 12 14 12 12 11 11 11 12 12 12 13 13 14 13 13 13 14 15 15 15 13 13 12 15 16 18 19 19 18 16 15 16 14 15 16 16 15 15 16 15 16 14 12 12 11 11 11 12 11 10 10 11 12 12 13 11 11 10 9 9 8 8 8 9 9 9 10 10 10 11 11 11
3 2 2 3 3 4 1 1 3 5 2 3 5 4 7 4 8 8 6 8 9 10 10 11 12 12 12 11 11 11 10 10 10 11 11 12 13 13 14 14 14 13 13 12 13 13 13 13 14 14 15 15 15 14 15 14 15 12 12 14 16 15 14 14 14 15 14 14 14 13 13 12 12 12 12 13 13 13 12 13 12 12 11 11 10 9 9 8 8 8 8 9 9 10 11 11 11
3 2 4 1 3 2 5 1 0 1 3 2 2 5 5 7 6 9 8 8 8 8 9 11 11 11 10 9 8 9 9 10 10 10 10 11 12 12 13 13 14 14 14 13 12 11 14 13 14 15 14 15 16 17 15 15 14 13 14 13 13 13 13 14 14 14 14 14 14 14 15 14 14 12 12 13 12 13 13 13 13 13 13 12 11 10 9 8 8 7 7 7 7 8 9 10 10
2 2 1 1 2 2 1 2 1 1 2 3 3 5 4 5 6 9 9 9 9 9 9 8 9 9 9 9 8 8 9 9 9 9 9 10 11 11 11 11 11 11 11 12 12 13 12 12 13 14 14 15 16 15 15 14 13 14 16 16 16 14 14 13 14 14 13 14 14 14 13 13 13 12 13 13 13 13 13 13 14 13 14 14 13 13 10 9 8 8 7 7 7 6 8 8 8
1 1 2 1 3 3 3 3 3 1 1 3 3 4 5 4 5 7 8 7 8 8 8 7 7 8 7 7 8 8 7 8 8 9 9 9 10 10 10 10 10 11 12 13 12 11 13 13 12 12 12 13 14 14 13 14 13 13 15 15 16 14 13 13 14 13 12 13 13 13 14 14 14 13 12 13 13 12 12 13 12 13 13 13 14 14 13 11 10 10 9 6 6 7 8 8 8
Wind_Direction
333 344 329 222 202 182 217 188 249 154 237 219 263 216 90 255 321 301 311 318 260 86 338 132 168 170 231 337 329 2 31 313 19 310 37 73 81 162 153 162 163 157 154 159 158 157 168 162 164 164 166 167 162 158 157 155 152 152 152 153 155 155 154 149 148 148 148 146 142 147 148 150 153 147 141 142 145 120 116 117 115 114 108 100 89 83 85 81 86 61 67 116 82 102 88 82 76
338 341 329 204 162 218 181 326 274 240 229 247 185 232 88 137 238 0 339 329 333 359 358 237 180 163 271 288 277 267 191 32 5 32 77 49 113 159 157 173 161 159 156 158 158 161 165 164 163 161 168 165 162 160 159 157 155 154 154 156 156 150 145 148 153 148 146 145 148 146 146 145 146 149 145 141 132 125 125 126 126 119 112 108 108 110 107 95 79 55 28 22 129 125 107 92 83
335 317 166 214 178 274 33 231 250 220 237 220 127 133 123 182 16 5 353 332 326 355 227 156 150 203 238 223 216 256 50 51 102 110 79 108 135 165 166 159 163 159 157 158 161 162 163 164 157 166 168 165 163 162 161 161 159 157 157 157 158 157 156 151 148 148 151 154 158 162 154 152 153 152 147 146 148 145 140 143 140 138 132 121 116 106 104 109 96 51 27 26 349 169 133 102 106
315 242 279 217 208 213 240 208 257 250 233 272 183 130 173 13 20 355 350 2 296 166 201 158 180 77 283 234 356 257 234 110 25 103 145 178 359 147 160 161 164 161 162 159 165 162 167 154 159 166 169 169 165 164 163 163 163 163 161 161 159 159 159 159 161 162 162 170 171 166 166 167 166 157 159 153 153 153 153 147 142 141 130 122 126 122 121 119 122 128 97 13 309 142 110 127 173
311 197 266 257 275 208 254 277 281 251 243 196 88 130 125 354 336 348 347 357 148 213 238 165 235 107 334 318 2 289 60 77 142 195 68 106 120 152 153 158 162 163 167 166 165 164 164 151 162 166 169 171 169 166 166 166 168 168 165 163 161 161 161 162 168 164 168 181 185 177 187 198 212 188 170 160 160 163 158 147 149 142 137 139 140 144 108 122 102 101 99 67 221 257 119 159 152
242 226 201 248 269 18 243 218 212 229 283 9 211 101 21 3 326 337 326 346 139 216 279 261 316 154 190 165 344 326 27 274 63 168 220 119 155 153 149 157 162 166 167 167 163 167 166 148 162 164 171 172 169 170 170 169 170 168 166 163 166 168 166 164 185 164 177 177 197 193 189 190 201 212 214 166 173 173 151 153 150 140 143 150 150 128 130 100 106 132 137 133 138 168 170 171 135
354 240 166 165 129 230 253 241 242 238 101 339 317 335 351 343 334 324 323 261 141 223 197 291 265 217 227 128 200 244 21 14 244 67 324 126 149 152 150 162 161 167 166 166 166 169 161 151 160 167 179 176 171 172 173 172 169 171 168 167 172 172 168 174 177 173 190 179 194 203 205 171 188 208 233 190 179 163 156 161 151 157 139 159 132 138 151 157 125 132 149 148 157 168 149 106 21
168 278 89 240 198 216 227 246 256 247 129 294 12 312 330 334 330 306 309 257 153 215 165 241 267 283 27 288 303 97 48 172 6 63 116 147 151 150 159 160 163 164 168 166 169 171 142 158 161 169 178 171 172 173 174 175 171 173 173 173 179 178 173 171 163 190 200 205 180 195 209 185 183 201 197 226 214 203 190 181 150 179 146 170 172 183 172 182 145 155 175 184 177 139 125 145 70
205 258 106 239 224 195 243 234 248 67 298 235 266 256 294 315 316 293 272 239 3 236 251 203 205 257 92 183 257 96 129 15 320 141 149 148 155 155 161 165 165 164 167 168 169 167 164 159 167 166 166 165 173 174 173 172 173 176 178 179 181 173 169 167 179 185 208 224 210 187 198 207 175 189 185 225 228 211 189 213 216 179 162 185 181 196 186 199 162 174 176 221 206 249 256 252 225
173 282 203 238 254 228 230 224 231 228 229 112 297 324 332 331 314 268 278 197 216 90 140 19 250 273 49 287 168 160 101 44 111 133 146 157 156 159 163 166 167 166 167 169 169 171 167 161 163 165 163 162 171 173 173 172 175 177 180 185 183 174 176 178 188 187 201 214 217 196 201 193 172 182 214 198 226 224 200 207 218 172 168 199 225 190 210 192 187 201 238 223 221 208 241 240 236
179 109 355 223 213 235 226 231 218 168 184 210 268 285 327 310 288 313 230 64 98 238 86 176 205 225 242 226 336 70 67 125 160 139 155 160 158 162 161 168 169 169 168 168 171 171 164 171 161 165 165 164 171 174 172 169 172 178 181 186 192 181 181 185 185 183 195 208 212 200 225 210 190 188 206 212 186 254 253 211 215 227 238 240 238 220 204 205 205 192 200 218 239 215 222 250 252
196 197 167 229 231 231 232 240 202 215 202 237 184 52 12 310 265 290 135 205 144 185 236 179 26 204 201 287 113 115 99 151 160 140 156 160 162 163 161 166 171 173 169 171 171 171 168 172 174 164 170 169 173 172 173 171 173 180 186 189 194 184 192 187 186 186 194 206 224 219 230 255 209 188 195 190 178 194 232 226 207 220 231 231 232 226 219 209 223 236 237 218 228 242 240 230 254
237 167 212 231 230 235 245 242 205 5 238 206 109 45 347 268 359 335 334 314 235 271 194 195 9 270 284 28 78 122 174 141 139 149 157 163 158 162 163 167 173 174 170 174 175 175 175 175 181 176 172 171 174 180 174 178 181 187 193 192 195 191 201 193 192 194 198 202 203 212 232 238 239 218 197 188 183 178 200 212 200 212 218 225 227 222 226 232 235 244 249 257 242 244 253 251 240
246 206 199 224 51 246 232 229 131 225 219 127 93 348 5 339 15 343 304 201 140 246 40 335 261 300 270 241 125 129 91 126 137 152 159 162 157 163 168 167 173 175 175 178 180 179 182 180 182 184 176 185 186 178 184 190 189 196 194 196 198 207 207 206 200 201 204 210 201 203 224 233 187 198 207 193 181 181 182 191 197 211 236 233 220 230 237 243 247 255 260 261 271 260 255 258 261
271 1 231 240 208 212 210 228 214 205 221 140 82 333 169 77 313 290 359 335 92 8 7 206 340 281 68 308 92 51 38 139 149 152 158 157 159 162 167 171 174 177 178 185 185 185 188 187 186 188 186 192 196 198 199 187 201 200 200 197 196 204 210 216 206 208 209 205 218 207 208 236 220 188 162 173 188 188 187 185 189 197 219 237 236 236 241 249 244 244 255 259 258 262 261 258 263
127 223 239 220 225 212 176 214 153 203 195 143 80 296 205 128 12 319 360 313 348 125 278 119 184 343 350 12 59 21 50 140 152 154 153 155 156 163 169 175 177 181 188 193 190 190 192 192 192 191 193 196 199 201 203 209 184 209 202 197 200 203 208 212 210 204 211 217 219 213 203 217 238 208 181 192 188 191 197 214 185 201 209 221 235 244 242 249 256 251 251 241 243 256 262 262 264
130 293 215 226 233 202 173 200 171 217 132 159 94 315 189 148 53 184 302 239 321 84 258 10 46 349 360 0 337 317 152 144 152 154 151 157 161 164 176 182 186 192 188 196 198 194 196 198 198 197 198 199 203 207 212 212 201 178 199 203 210 207 210 209 215 219 215 210 211 204 208 224 226 228 188 226 171 211 193 202 190 202 208 209 217 234 250 257 261 255 246 254 257 258 276 267 242
160 199 211 223 229 213 183 191 179 39 207 159 161 59 310 170 31 58 211 231 343 188 151 95 131 169 8 28 359 60 143 154 162 161 164 166 175 174 182 189 193 197 194 196 205 201 197 199 202 206 202 203 205 210 213 213 217 194 218 214 213 209 209 212 209 229 220 231 199 204 219 223 229 223 232 224 218 217 193 199 199 202 210 214 223 229 234 244 249 261 261 262 267 280 315 280 255
191 167 214 226 212 221 152 163 176 173 180 140 135 180 331 29 321 16 302 49 360 93 77 103 104 120 154 96 66 118 152 164 170 178 175 175 183 191 192 191 196 201 197 201 204 207 206 204 203 204 208 206 208 210 214 218 217 213 215 221 221 221 226 218 228 222 231 227 228 228 228 235 229 235 233 239 249 227 250 175 211 215 212 216 225 235 241 244 245 248 253 260 271 272 268 264 263
205 183 207 223 221 180 185 157 174 213 127 170 181 163 270 77 309 337 306 328 311 49 64 55 17 351 342 49 103 128 172 175 184 189 191 192 191 193 196 199 204 207 206 206 206 208 208 210 208 207 209 208 207 210 213 216 218 220 218 217 222 221 221 222 223 227 227 229 230 231 235 237 237 240 232 131 238 243 223 188 220 238 236 230 232 237 237 243 251 250 248 249 250 258 259 259 263
178 211 216 216 199 203 187 202 183 189 197 230 249 121 250 152 63 287 341 290 173 112 84 10 343 332 323 344 128 158 189 191 195 202 203 205 203 202 206 206 207 208 210 206 209 211 212 211 210 211 209 210 210 211 212 218 219 223 225 223 222 221 212 215 221 222 227 229 226 231 237 239 239 244 247 245 239 241 248 249 221 228 231 236 200 242 252 250 234 253 250 236 250 253 255 258 265
175 216 219 202 154 218 162 194 204 186 207 222 175 237 273 108 192 203 250 266 233 66 57 353 336 330 320 320 330 175 193 202 202 207 212 212 210 209 208 210 212 215 205 212 212 214 212 214 214 214 212 213 211 213 212 215 220 224 225 224 222 216 206 208 216 220 223 226 225 227 232 236 242 244 247 248 248 248 250 251 251 247 244 245 241 249 251 251 255 254 251 253 255 257 259 263 263
216 209 224 221 168 195 131 167 151 174 186 210 215 225 88 241 254 179 243 253 331 54 7 345 334 326 319 303 262 199 197 205 209 213 215 217 217 217 214 212 210 211 212 221 218 218 215 213 215 214 213 214 215 216 216 216 215 223 227 224 223 212 206 209 216 227 230 219 217 220 228 240 238 246 249 246 245 248 250 249 250 251 252 253 251 252 253 253 255 256 255 253 255 257 259 262 262
227 221 203 213 160 208 155 154 139 197 191 213 162 105 238 236 267 110 243 244 272 302 342 342 326 310 297 289 240 236 217 210 211 215 220 225 228 225 223 220 218 217 220 223 223 221 217 216 214 216 219 218 218 216 219 218 218 220 224 224 225 227 217 215 219 232 235 216 210 220 218 232 233 241 251 251 246 245 247 252 253 253 253 254 256 255 256 256 256 256 258 260 259 259 261 261 264
212 227 191 193 186 187 142 128 159 175 215 146 156 199 227 224 272 339 269 259 228 271 324 278 308 284 291 323 312 267 244 229 227 220 220 228 232 234 231 230 227 223 226 227 228 229 226 221 216 216 220 223 225 222 222 224 222 221 223 224 227 222 232 232 227 230 233 223 207 210 212 220 229 246 254 251 253 253 251 249 250 255 256 256 257 256 256 258 258 259 259 261 261 262 264 262 262
216 217 181 166 189 184 162 146 166 181 165 178 194 221 198 212 13 263 268 273 291 241 267 297 312 264 26 13 350 308 292 270 252 241 238 230 230 229 228 229 231 230 229 230 230 231 233 225 223 221 219 221 224 229 229 228 225 224 224 225 227 224 231 236 236 235 234 238 215 202 205 213 228 248 252 256 256 257 254 251 253 255 255 255 255 255 254 255 258 260 260 261 264 266 266 266 269
180 209 189 202 193 180 172 174 181 175 183 179 224 235 225 172 190 252 222 257 100 217 223 349 319 342 57 57 24 321 290 283 269 268 244 233 230 231 229 228 229 234 238 235 233 236 235 232 230 225 223 221 223 225 228 231 231 231 230 230 228 227 228 232 238 245 247 249 241 205 206 212 224 238 250 253 253 255 258 257 251 248 251 253 254 256 255 255 256 257 259 259 260 262 263 268 267
177 195 191 201 176 192 178 200 165 173 192 194 216 247 256 158 212 238 214 138 163 246 252 314 312 354 63 75 66 47 325 323 284 254 258 244 236 231 229 226 227 227 229 232 236 237 236 234 235 233 229 225 224 228 227 230 233 235 239 238 236 233 234 238 240 242 247 246 242 221 210 214 217 233 241 252 252 254 252 255 254 249 251 249 250 254 253 253 252 253 255 256 257 258 261 262 263
156 175 178 193 183 204 186 200 178 189 201 183 183 263 249 202 235 208 214 255 234 260 270 268 287 10 82 79 91 75 32 24 329 270 282 295 280 256 261 244 241 236 238 239 235 237 243 241 240 236 232 230 226 229 231 231 232 233 234 236 239 237 237 236 241 243 245 248 250 240 232 224 221 225 238 248 250 253 251 251 254 248 249 249 251 252 251 252 254 253 254 255 256 255 256 256 258
77 192 176 161 181 225 208 195 172 192 172 163 152 243 238 235 229 200 182 215 227 243 253 234 221 223 345 4 44 76 66 48 23 313 328 326 312 282 276 277 255 253 256 244 236 239 239 247 244 243 236 233 233 234 234 234 233 233 234 236 234 234 237 239 239 244 245 247 247 247 246 242 232 236 245 246 249 254 254 253 253 253 253 251 242 242 249 247 248 247 252 256 254 250 250 251 254
159 148 328 190 186 220 200 195 169 198 146 173 187 244 244 218 125 166 174 198 189 232 236 232 227 210 229 349 339 4 74 57 18 354 356 338 327 300 276 287 277 266 257 251 242 241 239 239 242 249 241 238 233 235 235 236 238 239 238 239 238 235 237 237 239 239 243 244 245 243 242 241 242 245 245 247 250 252 256 254 252 251 247 246 241 235 240 244 241 240 241 247 251 250 248 249 251
141 154 196 174 198 176 178 188 178 201 152 203 189 246 251 247 259 92 139 145 188 227 242 246 235 227 239 286 312 328 8 67 36 20 44 24 6 354 327 304 301 309 279 271 261 239 238 236 233 242 250 245 243 240 239 241 241 244 245 244 243 238 237 238 238 237 239 242 241 245 244 241 242 244 240 241 246 248 249 253 253 249 229 238 238 236 235 233 234 236 238 242 249 248 250 251 249
174 191 153 194 201 195 152 191 192 203 158 195 202 233 192 236 321 187 147 153 174 215 243 255 254 251 251 260 285 304 313 12 39 28 26 28 32 7 350 332 306 293 287 290 278 265 246 242 231 233 243 251 252 251 248 245 246 246 246 247 245 243 241 240 240 240 240 241 242 243 241 243 238 239 243 243 244 246 247 249 253 247 239 243 244 236 237 229 230 236 237 233 236 250 252 256 257
189 181 204 189 194 189 208 141 201 202 179 190 207 234 234 120 121 102 145 173 169 212 235 246 270 281 289 281 282 299 302 346 30 21 15 7 33 11 3 337 317 314 304 288 286 287 283 272 248 234 240 243 254 253 250 249 246 248 248 246 246 247 246 245 245 242 242 239 241 241 241 240 238 242 242 240 242 245 245 247 250 245 236 235 243 243 238 231 229 232 241 238 237 240 247 252 260
168 174 194 192 201 198 197 173 179 195 195 204 197 223 231 214 195 183 157 158 177 218 250 278 279 289 302 315 316 302 325 4 45 47 28 360 11 4 355 356 317 301 305 313 312 305 297 302 271 249 237 241 246 254 253 249 247 247 248 248 246 244 245 247 248 246 244 244 242 242 240 239 238 239 240 238 239 240 239 241 245 247 242 240 239 244 240 235 223 228 234 241 238 241 246 251 258
198 187 193 190 186 194 207 183 152 174 185 208 204 218 222 224 241 279 245 161 223 242 248 269 273 265 272 290 296 316 342 29 13 42 19 22 358 359 348 2 354 325 337 350 339 345 354 348 321 286 268 254 252 259 258 251 249 247 245 243 246 246 246 246 245 247 250 249 247 245 242 240 240 237 239 240 241 242 244 242 243 243 243 243 242 239 237 239 236 232 232 235 245 251 245 247 252
199 204 205 194 193 193 195 141 168 180 180 206 211 222 227 224 224 233 250 308 278 263 249 245 255 267 282 308 328 336 341 119 86 14 15 17 10 16 6 3 6 6 12 5 3 6 5 351 343 327 317 282 260 253 255 256 251 252 248 246 248 247 246 247 247 244 246 248 250 248 246 244 242 240 236 237 238 236 240 247 248 246 243 242 246 245 246 249 248 241 239 232 236 245 250 242 245
87 26 200 187 189 191 181 170 152 197 203 213 216 227 233 234 210 229 250 271 249 246 240 239 252 272 311 322 322 323 351 35 72 90 67 37 25 26 21 18 18 20 15 14 12 5 4 5 350 344 344 334 300 276 269 264 257 245 250 250 252 253 248 241 243 243 242 246 246 246 246 246 246 243 233 233 239 238 242 243 245 248 245 245 245 250 252 251 242 238 235 245 227 233 246 240 245
81 117 311 181 170 87 69 70 109 118 222 210 162 227 235 234 227 250 260 261 258 266 295 308 313 298 299 298 335 2 29 42 63 58 40 38 25 20 19 21 25 28 24 20 15 19 20 13 359 355 1 354 332 311 290 277 273 260 248 254 255 262 256 255 251 255 253 249 248 247 246 248 248 248 246 237 239 235 236 242 244 244 246 246 246 246 243 242 238 234 239 243 249 240 243 240 241
155 129 93 26 147 168 150 45 66 46 81 217 136 223 240 223 230 251 254 254 267 299 321 264 261 274 302 36 51 46 39 43 48 44 49 46 44 34 22 20 20 27 24 17 15 17 20 16 6 11 12 3 351 338 314 293 283 279 274 269 269 268 274 276 270 263 256 250 248 254 257 252 246 247 246 246 242 240 239 242 244 244 247 242 245 251 251 248 242 242 241 237 236 251 245 245 222
180 183 124 117 130 61 74 118 55 94 57 9 138 233 252 244 251 238 200 229 265 257 238 235 219 23 54 73 57 50 54 59 60 56 51 48 44 38 29 24 24 29 25 20 15 14 12 12 13 17 25 18 6 354 344 320 298 284 278 275 272 275 270 269 269 268 265 262 256 252 247 248 251 243 249 249 248 247 241 240 240 242 244 243 243 247 250 248 244 241 236 234 228 231 247 247 239
188 186 159 165 134 112 96 97 115 120 132 32 313 220 256 346 275 260 268 249 250 266 252 20 62 71 68 64 69 67 64 58 58 55 49 46 44 38 32 28 26 23 21 16 16 16 14 10 11 13 15 20 11 2 359 345 320 306 301 299 292 281 278 273 268 270 260 250 247 244 243 238 239 244 239 244 249 247 249 245 242 243 242 241 240 243 249 250 245 242 238 234 238 235 239 249 253
192 187 185 149 135 122 119 102 100 110 155 17 328 227 154 349 98 49 126 205 261 354 51 66 60 59 68 73 75 69 64 59 53 51 47 44 39 39 35 31 26 24 17 11 15 15 15 16 15 12 12 12 11 4 6 4 354 337 322 303 295 293 294 289 291 291 289 287 284 278 265 242 229 230 232 232 238 241 246 248 246 244 244 245 242 243 246 247 249 247 242 235 237 237 231 240 244
192 110 167 151 141 137 133 112 101 91 72 344 357 10 70 287 289 28 11 274 248 65 64 58 66 70 72 67 65 64 59 58 54 49 45 42 40 38 36 32 31 27 19 18 21 18 15 15 15 13 11 13 12 4 7 9 6 0 348 332 314 305 299 300 302 300 301 297 291 284 281 278 261 242 233 233 232 235 238 245 249 247 247 247 246 244 246 248 248 247 241 240 237 237 232 231 242
142 140 163 159 164 152 140 131 140 139 127 274 130 238 116 236 174 52 358 248 63 73 74 76 74 75 70 65 59 58 57 54 51 50 44 40 37 36 33 31 28 28 25 22 20 16 15 17 21 19 17 15 9 6 6 7 9 7 10 5 354 340 327 316 309 304 300 302 298 299 294 289 283 270 253 238 236 236 234 234 242 248 247 247 245 245 246 249 249 249 244 236 235 236 235 236 240
74 129 100 89 88 118 135 127 124 149 184 233 161 184 238 285 123 213 54 47 81 87 82 80 80 73 68 62 58 55 53 50 47 46 44 40 36 35 32 31 30 25 21 18 18 16 17 15 18 21 20 15 9 8 7 7 8 7 9 5 3 358 352 338 329 322 315 313 306 303 300 298 295 290 278 262 248 251 250 246 250 250 248 248 247 246 248 249 249 248 247 245 236 238 241 238 238
136 135 122 110 107 115 88 99 133 155 200 250 157 181 192 275 153 53 66 68 115 110 91 88 79 72 66 60 55 50 47 45 43 43 39 37 34 32 28 31 27 23 19 19 18 15 13 15 13 19 17 14 12 11 11 10 9 12 9 3 3 359 354 352 347 341 335 329 321 315 309 304 301 297 294 286 274 258 257 253 254 253 251 251 247 248 249 250 251 250 249 246 242 240 240 241 236
137 138 136 118 90 113 101 93 226 216 239 85 170 175 180 178 114 57 54 89 127 116 106 90 79 70 65 58 52 50 47 44 41 38 33 29 27 26 25 26 23 18 18 18 14 11 13 12 10 14 14 12 9 8 9 10 9 10 9 6 5 2 0 357 354 351 347 339 335 328 324 315 307 299 289 289 289 279 268 265 256 253 253 252 251 250 251 252 253 253 252 248 247 242 241 240 244
161 145 147 130 153 140 168 155 182 209 253 56 52 178 134 41 53 79 52 74 81 80 83 83 80 75 69 61 56 50 48 44 40 36 31 27 27 22 22 21 20 19 16 14 13 10 10 12 13 14 13 9 6 5 8 6 9 10 7 4 3 0 0 359 0 358 351 346 341 337 332 325 322 317 313 305 293 286 281 275 269 262 257 253 254 255 255 253 252 252 253 251 248 244 243 242 241
133 160 157 154 147 144 169 167 225 115 79 345 136 205 254 103 61 37 80 76 78 77 76 72 72 72 68 64 57 54 48 44 41 38 35 32 26 23 22 20 19 17 15 13 11 11 9 9 9 12 8 7 6 8 6 6 6 6 4 4 360 357 359 358 360 358 353 352 347 340 338 336 331 328 326 321 320 313 297 287 276 271 268 269 267 262 261 261 258 255 252 250 249 250 246 245 246
113 354 350 160 149 161 164 171 184 180 134 154 306 200 258 120 97 62 80 82 78 76 75 73 71 69 67 62 59 53 49 45 41 38 36 32 28 24 21 20 17 16 14 12 11 9 7 7 6 6 5 5 5 4 3 5 1 2 3 2 360 357 356 354 354 353 349 350 351 349 347 344 341 336 333 331 327 319 307 294 283 275 267 263 264 266 264 262 260 260 259 256 255 250 247 246 247
50 322 287 142 100 321 117 77 97 115 136 124 186 85 49 94 111 82 82 80 74 72 74 72 67 65 62 59 52 47 44 41 38 37 35 33 30 26 24 21 18 15 15 13 12 9 8 6 4 6 6 2 2 2 2 1 357 357 2 2 1 357 353 350 348 350 347 349 348 349 347 349 347 341 339 335 331 327 320 308 294 280 276 271 267 265 263 260 257 257 257 256 254 250 254 253 251
164 191 139 60 4 88 116 78 37 10 72 169 153 94 91 112 100 96 87 77 70 67 67 66 65 61 59 55 48 45 42 39 37 35 32 31 29 29 27 24 19 17 15 15 12 9 8 5 3 2 2 3 4 1 359 356 353 356 359 357 358 358 357 354 349 345 344 343 344 343 344 341 342 345 339 340 335 332 329 327 316 305 293 280 273 269 266 263 264 263 259 259 259 259 255 254 256
97 171 129 94 355 336 305 141 127 126 200 146 149 147 151 157 152 134 91 74 67 64 64 66 62 57 57 52 47 43 41 39 38 37 35 32 30 27 25 24 21 18 16 13 11 10 6 5 5 1 1 1 358 356 357 357 353 354 355 356 356 355 352 350 348 343 342 342 343 344 344 345 346 340 341 338 338 341 339 338 332 326 319 310 297 282 265 258 257 256 257 257 257 259 260 259 257
6 55 54 234 157 176 101 154 135 174 204 188 184 203 157 233 147 124 66 66 62 63 61 58 54 52 54 51 47 44 41 39 35 33 31 29 28 25 22 21 18 17 15 12 9 9 7 7 7 4 1 358 355 352 352 353 357 354 354 350 350 349 349 345 344 342 341 343 343 342 344 342 339 343 345 345 344 347 346 342 340 333 327 320 313 304 295 279 257 252 248 250 251 251 254 259 259
59 182 96 30 320 334 171 199 113 281 197 124 188 197 177 33 54 79 71 57 53 59 57 54 54 52 49 46 43 39 37 36 33 31 31 30 27 25 21 18 15 14 12 10 8 8 9 6 5 3 359 359 357 357 355 352 350 348 346 346 349 348 347 346 342 343 344 344 339 339 340 343 341 337 343 342 344 346 346 346 343 338 332 329 324 318 310 298 286 269 258 252 247 241 249 256 258
117 125 91 83 19 322 1 52 64 207 193 193 179 168 125 58 47 66 62 51 49 53 62 58 51 50 50 46 41 38 36 35 32 31 27 26 23 22 22 20 18 14 13 10 8 7 5 4 5 3 1 357 358 354 352 348 344 344 345 345 345 346 346 345 343 344 342 343 341 338 339 336 332 338 340 341 343 345 345 344 342 341 339 335 331 327 323 314 301 291 281 272 269 264 258 258 260
304 186 181 187 154 158 173 191 102 347 188 189 189 174 83 66 47 67 62 53 49 49 55 61 54 49 46 42 41 40 35 32 28 22 21 18 19 17 17 17 18 17 14 12 7 5 4 6 2 359 359 359 355 353 351 344 342 339 343 342 342 341 343 342 343 343 345 342 340 339 337 336 336 334 338 336 338 340 340 340 339 340 340 338 334 332 328 324 317 309 299 291 283 271 261 257 256